Вернуться в каталог

USA 62

АктивенВоенныеLEO
NORAD 20692·PAYLOAD·🇺🇸 United States

Запущен Jun 8, 1990 с Cape Canaveral Space Force Station

Loading…

Ближайшие Пролёты (ближайшие 24 часа)

TLE

СвежийSource: Space-Track

Эпоха: Sep 14, 2026, 14:36 UTC

1 20692U 90050D   26257.60844558  .00003123  00000-0  22253-3 0  9991
2 20692  63.2958 327.4772 0870168  86.4292 283.5731 13.65703698116923

Отслеживайте USA 62 в реальном времени с AllMySat

Download on the App Store